Simultaneous Nadir Overpasses (SNOs) Predictions

Prediction of SNOs between NOAA-19 and METOP-C Satellite Orbit:

Table of predicted SNOs for the next 14.0 days since TLE Epoch: 1/28/2023
Index Date (NOAA-19) Time (NOAA-19) Lat,Lon (NOAA-19) SZA (NOAA-19 ) Date (METOP-C) Time (METOP-C) Lat,Lon (METOP-C) SZA (METOP-C ) Distance(km) Time Diff (sec)
1 02/01/2023 17:05:57 80.93, -41.69 99.20 02/01/2023 17:06:59 80.92, -41.75 99.21 1.22 62
2 02/01/2023 17:56:56 -80.93, 125.65 80.81 02/01/2023 17:57:40 -80.92, 125.58 80.81 1.35 44
3 02/01/2023 18:47:56 80.93, -67.01 99.19 02/01/2023 18:48:20 80.93, -66.86 99.21 2.67 24
4 02/01/2023 19:38:55 -80.93, 100.32 80.82 02/01/2023 19:39:01 -80.93, 100.47 80.80 2.64 6
5 02/01/2023 20:29:55 80.93, -92.33 99.18 02/01/2023 20:29:42 80.92, -92.34 99.18 0.14 13
6 02/01/2023 21:20:54 -80.93, 75.00 80.83 02/01/2023 21:20:23 -80.92, 75.00 80.84 0.08 31
7 02/01/2023 22:11:54 80.93,-117.65 99.18 02/01/2023 22:11:04 80.92,-117.81 99.14 2.92 50



Historial Predications of SNOs between NOAA-19 and METOP-C
